Location: Orange Harbor Mobile Home Park
(26.6923°N, 81.7937°W)
Time: 08:38:30
(UTC+00:00)

Meteor 1-4 Rocket - Pass Details

Date: 19 September 2020
Orbit: 449 x 501 km, 81.2° (Epoch: 30 October)

Event Time Altitude Azimuth Distance (km) Brightness Sun altitude
Exits shadow 10:09:08 16° 317° (NW) 1,258 4.3 -15.4°
Drops below altitude 10° 10:10:17 10° 333° (NNW) 1,585 5.0 -15.1°
Sets 10:12:43 0° 349° (N) 2,467 6.1 -14.6°
